TimeEST,TemperatureF,Dew PointF,Humidity,Sea Level PressureIn,VisibilityMPH,Wind Direction,Wind SpeedMPH,Gust SpeedMPH,PrecipitationIn,Events,Conditions,WindDirDegrees,DateUTC
12:15 AM,39.2,35.6,87,30.21,10.0,Calm,Calm,-,N/A,,Clear,0,2012-11-20 05:15:00
12:35 AM,39.2,35.6,87,30.20,10.0,Calm,Calm,-,N/A,,Clear,0,2012-11-20 05:35:00
12:55 AM,39.2,35.6,87,30.20,10.0,Calm,Calm,-,N/A,,Clear,0,2012-11-20 05:55:00
1:15 AM,39.2,35.6,87,30.19,10.0,Calm,Calm,-,N/A,,Clear,0,2012-11-20 06:15:00
1:35 AM,37.4,33.8,87,30.18,10.0,Calm,Calm,-,N/A,,Clear,0,2012-11-20 06:35:00
1:55 AM,39.2,35.6,87,30.18,10.0,Calm,Calm,-,N/A,,Scattered Clouds,0,2012-11-20 06:55:00
2:15 AM,37.4,35.6,93,30.18,10.0,Calm,Calm,-,N/A,,Scattered Clouds,0,2012-11-20 07:15:00
2:35 AM,37.4,35.6,93,30.18,10.0,Calm,Calm,-,N/A,,Clear,0,2012-11-20 07:35:00
2:55 AM,37.4,35.6,93,30.18,10.0,Calm,Calm,-,N/A,,Clear,0,2012-11-20 07:55:00
3:15 AM,37.4,33.8,87,30.18,10.0,Calm,Calm,-,N/A,,Clear,0,2012-11-20 08:15:00
3:35 AM,37.4,33.8,87,30.18,10.0,Calm,Calm,-,N/A,,Clear,0,2012-11-20 08:35:00
7:15 AM,35.6,35.6,100,30.17,10.0,ESE,3.5,-,N/A,,Overcast,110,2012-11-20 12:15:00
7:35 AM,35.6,33.8,93,30.18,7.0,Calm,Calm,-,N/A,,Mostly Cloudy,0,2012-11-20 12:35:00
7:55 AM,35.6,35.6,100,30.19,10.0,Calm,Calm,-,N/A,,Mostly Cloudy,0,2012-11-20 12:55:00
8:15 AM,35.6,33.8,93,30.19,7.0,Calm,Calm,-,N/A,,Scattered Clouds,0,2012-11-20 13:15:00
8:35 AM,37.4,33.8,87,30.19,10.0,Calm,Calm,-,N/A,,Clear,0,2012-11-20 13:35:00
8:55 AM,37.4,35.6,93,30.19,10.0,ESE,3.5,-,N/A,,Clear,120,2012-11-20 13:55:00
9:15 AM,41.0,35.6,81,30.19,10.0,Calm,Calm,-,N/A,,Clear,0,2012-11-20 14:15:00
9:35 AM,42.8,37.4,81,30.19,10.0,Calm,Calm,-,N/A,,Scattered Clouds,0,2012-11-20 14:35:00
9:55 AM,42.8,35.6,76,30.19,10.0,Calm,Calm,-,N/A,,Clear,0,2012-11-20 14:55:00
10:15 AM,46.4,37.4,71,30.19,10.0,Calm,Calm,-,N/A,,Clear,0,2012-11-20 15:15:00
10:35 AM,48.2,37.4,66,30.18,10.0,Calm,Calm,-,N/A,,Clear,0,2012-11-20 15:35:00
10:55 AM,51.8,37.4,58,30.18,10.0,Calm,Calm,-,N/A,,Clear,0,2012-11-20 15:55:00
11:15 AM,53.6,35.6,51,30.17,10.0,Calm,Calm,-,N/A,,Clear,0,2012-11-20 16:15:00
11:35 AM,55.4,35.6,47,30.16,10.0,Calm,Calm,-,N/A,,Clear,0,2012-11-20 16:35:00
11:55 AM,59.0,33.8,39,30.15,10.0,Calm,Calm,-,N/A,,Clear,0,2012-11-20 16:55:00
12:15 PM,60.8,32.0,34,30.14,10.0,SW,4.6,-,N/A,,Clear,220,2012-11-20 17:15:00
12:35 PM,60.8,32.0,34,30.13,10.0,SSW,4.6,-,N/A,,Clear,210,2012-11-20 17:35:00
12:55 PM,62.6,32.0,32,30.11,10.0,SSW,4.6,-,N/A,,Clear,200,2012-11-20 17:55:00
1:15 PM,62.6,32.0,32,30.10,10.0,South,6.9,-,N/A,,Clear,170,2012-11-20 18:15:00
1:55 PM,64.4,32.0,30,30.09,10.0,NW,4.6,-,N/A,,Clear,310,2012-11-20 18:55:00
2:15 PM,64.4,32.0,30,30.09,10.0,WNW,3.5,-,N/A,,Clear,300,2012-11-20 19:15:00
2:35 PM,64.4,32.0,30,30.08,10.0,NW,4.6,-,N/A,,Clear,310,2012-11-20 19:35:00
2:55 PM,64.4,32.0,30,30.07,10.0,WSW,6.9,-,N/A,,Clear,250,2012-11-20 19:55:00
3:15 PM,62.6,30.2,30,30.07,10.0,WNW,5.8,-,N/A,,Clear,300,2012-11-20 20:15:00
3:35 PM,60.8,30.2,31,30.07,10.0,NNW,3.5,-,N/A,,Scattered Clouds,330,2012-11-20 20:35:00
3:55 PM,64.4,32.0,30,30.07,10.0,NW,5.8,-,N/A,,Scattered Clouds,320,2012-11-20 20:55:00
4:15 PM,62.6,32.0,32,30.07,10.0,Calm,Calm,-,N/A,,Clear,0,2012-11-20 21:15:00
4:35 PM,60.8,32.0,34,30.07,10.0,West,3.5,-,N/A,,Clear,280,2012-11-20 21:35:00
4:55 PM,59.0,32.0,36,30.07,10.0,WNW,3.5,-,N/A,,Scattered Clouds,290,2012-11-20 21:55:00
5:15 PM,59.0,32.0,36,30.07,10.0,Calm,Calm,-,N/A,,Mostly Cloudy,0,2012-11-20 22:15:00
5:35 PM,57.2,32.0,38,30.08,10.0,Calm,Calm,-,N/A,,Overcast,0,2012-11-20 22:35:00
5:55 PM,55.4,32.0,41,30.08,10.0,Calm,Calm,-,N/A,,Overcast,0,2012-11-20 22:55:00
6:15 PM,55.4,32.0,41,30.09,10.0,Calm,Calm,-,N/A,,Overcast,0,2012-11-20 23:15:00
6:35 PM,53.6,32.0,44,30.09,10.0,East,9.2,-,N/A,,Overcast,100,2012-11-20 23:35:00
6:55 PM,53.6,32.0,44,30.10,10.0,East,8.1,-,N/A,,Overcast,90,2012-11-20 23:55:00
7:15 PM,51.8,33.8,50,30.10,10.0,East,9.2,-,N/A,,Overcast,100,2012-11-21 00:15:00
7:35 PM,53.6,33.8,47,30.10,10.0,East,5.8,-,N/A,,Overcast,100,2012-11-21 00:35:00
7:55 PM,51.8,33.8,50,30.10,10.0,Calm,Calm,-,N/A,,Overcast,0,2012-11-21 00:55:00
8:15 PM,51.8,33.8,50,30.11,10.0,East,3.5,-,N/A,,Overcast,100,2012-11-21 01:15:00
8:35 PM,50.0,35.6,58,30.11,10.0,Calm,Calm,-,N/A,,Overcast,0,2012-11-21 01:35:00
8:55 PM,50.0,33.8,54,30.11,10.0,Calm,Calm,-,N/A,,Overcast,0,2012-11-21 01:55:00
9:15 PM,51.8,33.8,50,30.12,10.0,Calm,Calm,-,N/A,,Overcast,0,2012-11-21 02:15:00
9:35 PM,50.0,35.6,58,30.12,10.0,ESE,5.8,-,N/A,,Overcast,110,2012-11-21 02:35:00
9:55 PM,50.0,33.8,54,30.13,10.0,Calm,Calm,-,N/A,,Overcast,0,2012-11-21 02:55:00
10:15 PM,50.0,33.8,54,30.13,10.0,Calm,Calm,-,N/A,,Overcast,0,2012-11-21 03:15:00
10:35 PM,50.0,33.8,54,30.13,10.0,SE,3.5,-,N/A,,Overcast,140,2012-11-21 03:35:00
10:55 PM,50.0,33.8,54,30.13,10.0,Calm,Calm,-,N/A,,Overcast,0,2012-11-21 03:55:00
11:15 PM,50.0,33.8,54,30.13,10.0,Calm,Calm,-,N/A,,Overcast,0,2012-11-21 04:15:00
11:35 PM,48.2,35.6,62,30.13,10.0,Calm,Calm,-,N/A,,Overcast,0,2012-11-21 04:35:00
11:55 PM,48.2,35.6,62,30.13,10.0,Calm,Calm,-,N/A,,Overcast,0,2012-11-21 04:55:00